QPF
0.00 0.00 0.00 0.00 0.00 0.00 0.00 0.00 0.00 0.01 0.00 0.00 0.00 0.00 0.00 0.00 0.00 0.00 0.00 0.01 0.01 0.01 0.01 0.01 0.01 0.02 0.02 0.02 0.02 0.02 0.03 0.03 0.03 0.02 0.01 0.01 0.02 0.03 0.03 0.04 0.07 0.09 0.08 0.06
0.00 0.00 0.00 0.00 0.00 0.00 0.00 0.00 0.00 0.00 0.00 0.00 0.00 0.00 0.00 0.00 0.00 0.00 0.00 0.00 0.01 0.01 0.01 0.00 0.00 0.01 0.01 0.02 0.02 0.02 0.02 0.03 0.03 0.03 0.02 0.01 0.01 0.02 0.03 0.04 0.06 0.08 0.08 0.07
0.00 0.00 0.00 0.00 0.00 0.01 0.00 0.00 0.00 0.00 0.00 0.00 0.00 0.00 0.00 0.00 0.00 0.00 0.00 0.00 0.00 0.00 0.00 0.00 0.00 0.00 0.01 0.01 0.02 0.02 0.02 0.03 0.03 0.03 0.03 0.02 0.02 0.02 0.02 0.03 0.04 0.05 0.07 0.06
0.00 0.00 0.00 0.00 0.00 0.00 0.00 0.00 0.00 0.00 0.00 0.00 0.01 0.01 0.00 0.00 0.00 0.00 0.00 0.00 0.00 0.00 0.00 0.00 0.00 0.00 0.01 0.01 0.02 0.02 0.01 0.02 0.03 0.03 0.02 0.02 0.01 0.02 0.02 0.02 0.02 0.02 0.03 0.04
0.00 0.00 0.00 0.00 0.00 0.00 0.00 0.00 0.00 0.00 0.01 0.01 0.01 0.01 0.00 0.00 0.00 0.00 0.00 0.00 0.00 0.00 0.00 0.00 0.00 0.00 0.01 0.01 0.01 0.01 0.02 0.03 0.03 0.03 0.03 0.03 0.02 0.02 0.02 0.02 0.01 0.02 0.02 0.02
0.00 0.00 0.00 0.00 0.00 0.00 0.00 0.00 0.00 0.01 0.01 0.01 0.00 0.00 0.00 0.00 0.00 0.00 0.00 0.00 0.00 0.00 0.00 0.00 0.00 0.00 0.00 0.00 0.00 0.01 0.01 0.03 0.03 0.03 0.04 0.04 0.03 0.02 0.02 0.02 0.01 0.01 0.01 0.01
0.00 0.00 0.00 0.00 0.00 0.00 0.00 0.01 0.01 0.02 0.01 0.01 0.01 0.00 0.00 0.00 0.00 0.00 0.00 0.00 0.00 0.00 0.00 0.00 0.00 0.00 0.00 0.00 0.00 0.00 0.01 0.01 0.02 0.02 0.04 0.05 0.04 0.04 0.03 0.02 0.02 0.02 0.02 0.02
0.00 0.00 0.00 0.00 0.00 0.00 0.00 0.01 0.01 0.01 0.00 0.00 0.00 0.00 0.00 0.00 0.00 0.00 0.00 0.00 0.00 0.00 0.00 0.00 0.00 0.00 0.00 0.00 0.00 0.01 0.01 0.02 0.01 0.01 0.02 0.03 0.04 0.04 0.04 0.02 0.02 0.02 0.02 0.02
0.01 0.00 0.00 0.00 0.00 0.00 0.00 0.00 0.01 0.02 0.01 0.00 0.00 0.00 0.00 0.00 0.00 0.00 0.00 0.00 0.00 0.00 0.00 0.00 0.00 0.00 0.00 0.00 0.01 0.01 0.02 0.02 0.02 0.02 0.02 0.02 0.03 0.04 0.05 0.04 0.03 0.02 0.02 0.02
0.01 0.01 0.00 0.00 0.00 0.00 0.00 0.00 0.01 0.02 0.02 0.00 0.00 0.00 0.00 0.00 0.00 0.00 0.00 0.00 0.00 0.00 0.00 0.00 0.00 0.00 0.00 0.00 0.01 0.01 0.02 0.04 0.04 0.03 0.02 0.02 0.02 0.02 0.04 0.05 0.04 0.03 0.03 0.03
0.01 0.01 0.00 0.00 0.00 0.00 0.00 0.01 0.01 0.01 0.01 0.01 0.01 0.00 0.00 0.00 0.00 0.00 0.00 0.00 0.00 0.00 0.00 0.00 0.00 0.00 0.00 0.00 0.01 0.01 0.02 0.05 0.07 0.06 0.03 0.02 0.02 0.02 0.02 0.03 0.03 0.02 0.02 0.02
0.01 0.02 0.01 0.00 0.00 0.00 0.00 0.00 0.01 0.02 0.01 0.01 0.01 0.00 0.00 0.00 0.00 0.00 0.00 0.00 0.00 0.00 0.00 0.00 0.00 0.00 0.00 0.01 0.01 0.02 0.02 0.03 0.07 0.07 0.04 0.03 0.02 0.02 0.02 0.02 0.02 0.02 0.02 0.02
0.01 0.03 0.02 0.01 0.01 0.01 0.01 0.01 0.01 0.01 0.02 0.01 0.01 0.00 0.00 0.00 0.00 0.00 0.00 0.00 0.00 0.00 0.00 0.00 0.00 0.00 0.01 0.01 0.02 0.02 0.02 0.02 0.05 0.04 0.03 0.02 0.01 0.01 0.02 0.02 0.02 0.02 0.02 0.03
0.02 0.03 0.02 0.01 0.01 0.02 0.02 0.01 0.01 0.02 0.03 0.02 0.01 0.00 0.00 0.00 0.00 0.00 0.00 0.00 0.00 0.00 0.00 0.00 0.01 0.01 0.01 0.01 0.02 0.03 0.03 0.02 0.03 0.05 0.04 0.02 0.01 0.01 0.01 0.02 0.02 0.02 0.03 0.03
0.03 0.03 0.01 0.01 0.01 0.01 0.01 0.01 0.01 0.01 0.01 0.01 0.01 0.01 0.01 0.00 0.00 0.00 0.00 0.00 0.00 0.00 0.00 0.00 0.01 0.01 0.02 0.02 0.02 0.03 0.03 0.02 0.02 0.03 0.04 0.03 0.02 0.02 0.02 0.02 0.03 0.03 0.03 0.03
0.03 0.03 0.02 0.01 0.00 0.01 0.01 0.00 0.00 0.01 0.01 0.01 0.01 0.01 0.01 0.00 0.00 0.00 0.00 0.00 0.00 0.00 0.00 0.00 0.00 0.01 0.02 0.02 0.02 0.02 0.03 0.03 0.02 0.02 0.01 0.02 0.02 0.01 0.02 0.02 0.04 0.04 0.04 0.03
0.04 0.04 0.03 0.02 0.00 0.01 0.01 0.00 0.00 0.01 0.01 0.01 0.01 0.01 0.00 0.00 0.00 0.00 0.00 0.00 0.00 0.00 0.00 0.00 0.00 0.00 0.01 0.02 0.02 0.02 0.02 0.02 0.02 0.02 0.01 0.01 0.01 0.01 0.02 0.02 0.03 0.03 0.03 0.03
0.03 0.04 0.04 0.02 0.01 0.01 0.01 0.01 0.00 0.00 0.01 0.01 0.01 0.01 0.00 0.00 0.00 0.00 0.00 0.00 0.00 0.00 0.00 0.00 0.00 0.00 0.00 0.01 0.02 0.02 0.02 0.02 0.02 0.02 0.02 0.01 0.01 0.02 0.02 0.02 0.01 0.02 0.02 0.03
0.02 0.04 0.04 0.03 0.02 0.01 0.01 0.01 0.01 0.01 0.01 0.01 0.01 0.00 0.00 0.00 0.01 0.01 0.00 0.00 0.00 0.00 0.00 0.00 0.00 0.00 0.00 0.00 0.01 0.01 0.01 0.01 0.01 0.02 0.01 0.01 0.01 0.02 0.02 0.02 0.02 0.01 0.02 0.02
0.01 0.04 0.05 0.04 0.03 0.02 0.01 0.01 0.01 0.02 0.01 0.01 0.01 0.01 0.01 0.01 0.01 0.01 0.01 0.00 0.00 0.00 0.00 0.00 0.00 0.00 0.00 0.00 0.00 0.00 0.00 0.00 0.00 0.01 0.01 0.01 0.01 0.01 0.02 0.03 0.03 0.02 0.02 0.03
0.02 0.04 0.04 0.03 0.03 0.02 0.02 0.01 0.01 0.03 0.03 0.02 0.01 0.01 0.01 0.01 0.01 0.01 0.00 0.00 0.00 0.00 0.00 0.00 0.00 0.00 0.00 0.00 0.00 0.00 0.00 0.00 0.00 0.00 0.00 0.00 0.00 0.00 0.01 0.01 0.02 0.03 0.03 0.03
0.03 0.04 0.04 0.04 0.04 0.03 0.02 0.01 0.02 0.04 0.03 0.02 0.02 0.02 0.01 0.01 0.01 0.01 0.01 0.00 0.00 0.00 0.00 0.00 0.00 0.00 0.00 0.00 0.00 0.00 0.00 0.00 0.00 0.00 0.00 0.00 0.00 0.00 0.00 0.01 0.01 0.02 0.02 0.02
0.04 0.06 0.06 0.05 0.04 0.03 0.03 0.04 0.05 0.03 0.02 0.02 0.02 0.02 0.01 0.01 0.01 0.01 0.01 0.01 0.01 0.01 0.01 0.00 0.00 0.00 0.00 0.00 0.00 0.00 0.00 0.00 0.00 0.00 0.01 0.01 0.01 0.01 0.01 0.01 0.01 0.01 0.02 0.02
0.03 0.03 0.04 0.06 0.05 0.03 0.03 0.03 0.03 0.02 0.03 0.02 0.02 0.02 0.02 0.02 0.01 0.01 0.01 0.01 0.01 0.01 0.01 0.01 0.00 0.00 0.00 0.00 0.00 0.00 0.00 0.00 0.00 0.01 0.01 0.01 0.01 0.02 0.02 0.02 0.02 0.01 0.02 0.02
0.02 0.03 0.04 0.05 0.05 0.04 0.03 0.03 0.03 0.03 0.03 0.02 0.02 0.02 0.02 0.02 0.02 0.02 0.02 0.02 0.02 0.01 0.01 0.01 0.01 0.01 0.01 0.01 0.01 0.00 0.01 0.01 0.01 0.01 0.01 0.01 0.01 0.01 0.01 0.01 0.01 0.01 0.01 0.01
0.03 0.03 0.04 0.04 0.03 0.04 0.03 0.02 0.02 0.02 0.02 0.02 0.02 0.02 0.03 0.03 0.03 0.03 0.03 0.02 0.02 0.02 0.01 0.01 0.01 0.01 0.01 0.01 0.01 0.01 0.01 0.01 0.02 0.02 0.02 0.01 0.01 0.01 0.01 0.01 0.01 0.01 0.01 0.01
MSLP
1020.30 1020.60 1020.87 1021.08 1021.24 1021.33 1021.35 1021.29 1021.16 1020.96 1020.72 1020.43 1020.13 1019.82 1019.50 1019.18 1018.84 1018.47 1018.04 1017.54 1016.98 1016.35 1015.69 1015.03 1014.40 1013.84 1013.38 1013.03 1012.79 1012.64 1012.58 1012.57 1012.61 1012.68 1012.78 1012.93 1013.13 1013.40 1013.74 1014.15 1014.63 1015.16 1015.73 1016.32
1020.54 1020.78 1020.97 1021.12 1021.23 1021.30 1021.34 1021.32 1021.26 1021.15 1020.99 1020.79 1020.54 1020.27 1019.97 1019.64 1019.29 1018.88 1018.43 1017.91 1017.32 1016.67 1015.98 1015.29 1014.62 1014.02 1013.51 1013.11 1012.83 1012.68 1012.62 1012.64 1012.71 1012.83 1012.98 1013.15 1013.36 1013.60 1013.89 1014.24 1014.65 1015.11 1015.61 1016.15
1020.72 1020.88 1021.00 1021.09 1021.16 1021.23 1021.29 1021.33 1021.35 1021.33 1021.26 1021.13 1020.94 1020.70 1020.41 1020.07 1019.70 1019.28 1018.82 1018.30 1017.71 1017.07 1016.38 1015.67 1014.97 1014.32 1013.75 1013.29 1012.96 1012.77 1012.69 1012.72 1012.82 1012.97 1013.15 1013.35 1013.56 1013.79 1014.04 1014.33 1014.66 1015.04 1015.46 1015.94
1020.86 1020.95 1020.99 1021.03 1021.08 1021.16 1021.27 1021.38 1021.49 1021.56 1021.56 1021.48 1021.33 1021.09 1020.79 1020.43 1020.04 1019.61 1019.15 1018.65 1018.10 1017.49 1016.83 1016.13 1015.42 1014.73 1014.11 1013.58 1013.18 1012.92 1012.79 1012.80 1012.89 1013.06 1013.27 1013.49 1013.71 1013.93 1014.15 1014.38 1014.64 1014.95 1015.30 1015.70
1020.99 1021.00 1020.99 1021.00 1021.05 1021.16 1021.33 1021.52 1021.71 1021.85 1021.91 1021.86 1021.70 1021.44 1021.10 1020.70 1020.28 1019.84 1019.40 1018.93 1018.44 1017.90 1017.29 1016.64 1015.94 1015.24 1014.56 1013.96 1013.47 1013.12 1012.92 1012.87 1012.93 1013.09 1013.30 1013.54 1013.77 1013.99 1014.19 1014.39 1014.60 1014.84 1015.12 1015.45
1021.13 1021.09 1021.04 1021.04 1021.12 1021.28 1021.51 1021.78 1022.04 1022.23 1022.32 1022.26 1022.07 1021.75 1021.33 1020.87 1020.40 1019.95 1019.53 1019.12 1018.71 1018.26 1017.75 1017.17 1016.52 1015.81 1015.10 1014.43 1013.84 1013.38 1013.08 1012.93 1012.93 1013.05 1013.24 1013.48 1013.72 1013.95 1014.15 1014.34 1014.52 1014.72 1014.95 1015.22
1021.30 1021.23 1021.18 1021.19 1021.31 1021.53 1021.83 1022.17 1022.48 1022.70 1022.78 1022.68 1022.41 1022.00 1021.50 1020.96 1020.43 1019.96 1019.56 1019.21 1018.90 1018.57 1018.18 1017.70 1017.11 1016.44 1015.70 1014.96 1014.28 1013.70 1013.27 1013.01 1012.92 1012.96 1013.11 1013.33 1013.57 1013.80 1014.02 1014.21 1014.39 1014.57 1014.77 1015.01
1021.52 1021.44 1021.40 1021.45 1021.61 1021.89 1022.26 1022.65 1022.99 1023.21 1023.25 1023.09 1022.73 1022.21 1021.60 1020.96 1020.37 1019.88 1019.50 1019.23 1019.02 1018.82 1018.57 1018.20 1017.71 1017.08 1016.35 1015.56 1014.78 1014.08 1013.51 1013.12 1012.90 1012.85 1012.93 1013.10 1013.33 1013.57 1013.79 1014.00 1014.19 1014.38 1014.58 1014.81
1021.79 1021.71 1021.70 1021.79 1022.01 1022.34 1022.75 1023.17 1023.51 1023.70 1023.69 1023.44 1022.98 1022.34 1021.62 1020.89 1020.24 1019.73 1019.38 1019.18 1019.08 1019.01 1018.90 1018.66 1018.27 1017.71 1016.99 1016.17 1015.32 1014.51 1013.81 1013.27 1012.92 1012.75 1012.73 1012.84 1013.03 1013.25 1013.49 1013.71 1013.93 1014.14 1014.36 1014.59
1022.08 1022.03 1022.05 1022.19 1022.44 1022.81 1023.24 1023.65 1023.97 1024.11 1024.02 1023.68 1023.12 1022.38 1021.56 1020.76 1020.07 1019.55 1019.22 1019.09 1019.08 1019.13 1019.15 1019.04 1018.76 1018.27 1017.59 1016.76 1015.86 1014.96 1014.15 1013.48 1012.99 1012.69 1012.57 1012.59 1012.72 1012.91 1013.13 1013.36 1013.59 1013.82 1014.07 1014.34
1022.37 1022.36 1022.42 1022.58 1022.85 1023.22 1023.63 1024.01 1024.27 1024.34 1024.18 1023.75 1023.10 1022.29 1021.41 1020.56 1019.84 1019.32 1019.03 1018.95 1019.02 1019.17 1019.29 1019.30 1019.12 1018.71 1018.09 1017.29 1016.37 1015.42 1014.53 1013.75 1013.14 1012.72 1012.48 1012.39 1012.43 1012.56 1012.74 1012.95 1013.18 1013.43 1013.70 1014.00
1022.63 1022.66 1022.74 1022.91 1023.17 1023.51 1023.87 1024.18 1024.36 1024.36 1024.11 1023.62 1022.91 1022.06 1021.15 1020.29 1019.57 1019.07 1018.80 1018.76 1018.89 1019.11 1019.32 1019.41 1019.32 1019.01 1018.46 1017.71 1016.81 1015.86 1014.92 1014.08 1013.37 1012.84 1012.48 1012.29 1012.22 1012.26 1012.37 1012.54 1012.74 1012.98 1013.26 1013.58
1022.85 1022.91 1022.99 1023.14 1023.36 1023.63 1023.90 1024.12 1024.21 1024.12 1023.80 1023.27 1022.54 1021.68 1020.79 1019.95 1019.27 1018.79 1018.56 1018.54 1018.71 1018.97 1019.22 1019.38 1019.37 1019.13 1018.67 1017.99 1017.16 1016.24 1015.32 1014.45 1013.69 1013.08 1012.62 1012.31 1012.12 1012.05 1012.07 1012.15 1012.29 1012.49 1012.76 1013.08
1023.01 1023.07 1023.14 1023.24 1023.38 1023.56 1023.72 1023.82 1023.81 1023.64 1023.28 1022.72 1022.01 1021.19 1020.35 1019.57 1018.94 1018.51 1018.30 1018.31 1018.48 1018.75 1019.03 1019.23 1019.27 1019.11 1018.73 1018.15 1017.41 1016.57 1015.69 1014.84 1014.07 1013.41 1012.87 1012.46 1012.16 1011.97 1011.86 1011.84 1011.89 1012.02 1012.24 1012.53
1023.10 1023.14 1023.17 1023.20 1023.24 1023.30 1023.34 1023.32 1023.21 1022.97 1022.58 1022.04 1021.37 1020.63 1019.88 1019.19 1018.64 1018.26 1018.08 1018.10 1018.26 1018.52 1018.79 1018.99 1019.07 1018.97 1018.68 1018.20 1017.58 1016.84 1016.05 1015.26 1014.51 1013.83 1013.23 1012.73 1012.33 1012.01 1011.78 1011.63 1011.57 1011.60 1011.74 1011.98
1023.12 1023.12 1023.08 1023.03 1022.97 1022.90 1022.82 1022.70 1022.50 1022.22 1021.82 1021.32 1020.72 1020.08 1019.44 1018.86 1018.40 1018.09 1017.94 1017.96 1018.10 1018.32 1018.56 1018.76 1018.84 1018.79 1018.57 1018.20 1017.69 1017.07 1016.38 1015.67 1014.96 1014.29 1013.67 1013.11 1012.61 1012.18 1011.82 1011.55 1011.36 1011.28 1011.31 1011.47
1023.07 1023.02 1022.91 1022.76 1022.60 1022.43 1022.25 1022.04 1021.79 1021.48 1021.10 1020.66 1020.16 1019.64 1019.12 1018.66 1018.29 1018.05 1017.93 1017.94 1018.05 1018.23 1018.43 1018.59 1018.67 1018.64 1018.48 1018.19 1017.78 1017.27 1016.68 1016.06 1015.41 1014.77 1014.14 1013.54 1012.97 1012.44 1011.98 1011.58 1011.27 1011.07 1010.99 1011.04
1022.97 1022.86 1022.68 1022.46 1022.22 1021.97 1021.72 1021.46 1021.18 1020.88 1020.55 1020.18 1019.79 1019.39 1019.00 1018.65 1018.38 1018.19 1018.10 1018.10 1018.17 1018.30 1018.44 1018.56 1018.61 1018.58 1018.45 1018.22 1017.88 1017.45 1016.96 1016.41 1015.82 1015.21 1014.59 1013.96 1013.35 1012.76 1012.20 1011.71 1011.29 1010.98 1010.78 1010.72
1022.85 1022.68 1022.44 1022.18 1021.89 1021.61 1021.33 1021.06 1020.80 1020.54 1020.27 1019.98 1019.69 1019.40 1019.12 1018.87 1018.67 1018.53 1018.45 1018.44 1018.48 1018.55 1018.63 1018.69 1018.70 1018.65 1018.52 1018.31 1018.01 1017.64 1017.20 1016.69 1016.15 1015.57 1014.96 1014.33 1013.69 1013.06 1012.45 1011.89 1011.39 1010.98 1010.69 1010.51
1022.72 1022.51 1022.25 1021.97 1021.69 1021.41 1021.16 1020.92 1020.70 1020.50 1020.30 1020.10 1019.89 1019.69 1019.49 1019.31 1019.16 1019.05 1018.97 1018.94 1018.94 1018.96 1018.98 1018.98 1018.94 1018.85 1018.70 1018.47 1018.17 1017.81 1017.39 1016.91 1016.39 1015.82 1015.22 1014.60 1013.95 1013.31 1012.68 1012.07 1011.52 1011.05 1010.67 1010.40
1022.63 1022.40 1022.15 1021.90 1021.65 1021.43 1021.23 1021.06 1020.92 1020.78 1020.65 1020.52 1020.38 1020.23 1020.08 1019.94 1019.81 1019.70 1019.61 1019.55 1019.50 1019.47 1019.43 1019.37 1019.28 1019.14 1018.94 1018.68 1018.35 1017.97 1017.53 1017.04 1016.51 1015.95 1015.36 1014.74 1014.11 1013.47 1012.83 1012.22 1011.65 1011.13 1010.69 1010.35
1022.59 1022.38 1022.17 1021.97 1021.80 1021.67 1021.56 1021.48 1021.41 1021.35 1021.28 1021.19 1021.08 1020.96 1020.82 1020.67 1020.53 1020.39 1020.28 1020.18 1020.09 1020.01 1019.92 1019.81 1019.66 1019.46 1019.20 1018.89 1018.51 1018.08 1017.60 1017.08 1016.53 1015.96 1015.36 1014.76 1014.14 1013.52 1012.90 1012.30 1011.72 1011.19 1010.71 1010.30
1022.64 1022.47 1022.32 1022.21 1022.14 1022.10 1022.10 1022.11 1022.12 1022.12 1022.09 1022.02 1021.91 1021.77 1021.60 1021.42 1021.23 1021.05 1020.89 1020.74 1020.61 1020.49 1020.36 1020.20 1020.00 1019.76 1019.44 1019.07 1018.63 1018.14 1017.61 1017.04 1016.46 1015.86 1015.26 1014.66 1014.06 1013.46 1012.87 1012.29 1011.72 1011.18 1010.67 1010.23
1022.78 1022.67 1022.60 1022.58 1022.61 1022.68 1022.77 1022.87 1022.94 1022.98 1022.97 1022.89 1022.76 1022.57 1022.34 1022.09 1021.84 1021.60 1021.38 1021.18 1021.01 1020.85 1020.68 1020.49 1020.26 1019.96 1019.60 1019.17 1018.68 1018.13 1017.54 1016.93 1016.31 1015.68 1015.07 1014.47 1013.88 1013.31 1012.73 1012.17 1011.61 1011.06 1010.54 1010.07
1023.02 1022.97 1022.98 1023.05 1023.17 1023.33 1023.50 1023.66 1023.78 1023.83 1023.81 1023.70 1023.52 1023.26 1022.96 1022.63 1022.30 1021.98 1021.70 1021.46 1021.24 1021.05 1020.85 1020.64 1020.38 1020.05 1019.66 1019.19 1018.65 1018.05 1017.42 1016.76 1016.10 1015.45 1014.82 1014.21 1013.63 1013.06 1012.49 1011.94 1011.38 1010.83 1010.29 1009.78
1023.34 1023.36 1023.43 1023.58 1023.77 1023.99 1024.21 1024.40 1024.53 1024.58 1024.53 1024.37 1024.12 1023.79 1023.41 1023.00 1022.59 1022.20 1021.86 1021.57 1021.32 1021.09 1020.88 1020.64 1020.36 1020.02 1019.60 1019.10 1018.53 1017.90 1017.23 1016.54 1015.85 1015.17 1014.52 1013.90 1013.31 1012.73 1012.16 1011.59 1011.02 1010.45 1009.89 1009.35
Thickness
5591 5584 5580 5581 5578 5579 5573 5567 5563 5566 5570 5565 5563 5566 5575 5576 5573 5572 5572 5573 5576 5579 5582 5583 5584 5585 5584 5583 5583 5583 5583 5583 5583 5583 5582 5582 5583 5585 5586 5588 5591 5592 5593 5594
5579 5578 5582 5580 5575 5570 5566 5562 5560 5563 5565 5561 5557 5562 5570 5572 5570 5570 5570 5570 5571 5573 5576 5577 5578 5578 5577 5577 5577 5577 5577 5576 5577 5577 5577 5576 5576 5576 5578 5579 5580 5582 5584 5586
5576 5579 5579 5575 5569 5565 5562 5557 5557 5556 5556 5555 5552 5560 5566 5570 5568 5568 5568 5567 5568 5569 5569 5571 5572 5572 5571 5571 5572 5572 5571 5570 5570 5570 5569 5568 5567 5567 5568 5569 5571 5573 5575 5577
5568 5571 5571 5568 5564 5561 5557 5559 5554 5551 5545 5540 5544 5540 5559 5561 5561 5564 5562 5561 5561 5563 5564 5565 5566 5566 5566 5566 5566 5566 5566 5565 5564 5563 5563 5562 5561 5561 5562 5562 5564 5566 5568 5569
5564 5566 5564 5562 5563 5559 5554 5554 5548 5545 5539 5534 5534 5530 5547 5552 5557 5560 5558 5557 5557 5557 5558 5559 5559 5560 5561 5561 5560 5560 5559 5558 5558 5556 5556 5556 5556 5556 5555 5556 5557 5559 5560 5562
5556 5559 5559 5558 5558 5554 5549 5543 5537 5528 5526 5531 5535 5524 5539 5544 5554 5556 5555 5553 5552 5552 5552 5553 5553 5554 5554 5554 5553 5553 5553 5552 5551 5551 5551 5551 5551 5550 5550 5550 5550 5551 5552 5553
5549 5552 5553 5552 5548 5545 5542 5533 5523 5524 5518 5528 5530 5524 5538 5551 5552 5552 5550 5547 5545 5545 5544 5545 5545 5547 5547 5547 5546 5546 5546 5546 5545 5545 5545 5545 5545 5545 5545 5545 5545 5544 5545 5546
5534 5536 5545 5544 5542 5536 5532 5531 5523 5521 5517 5519 5521 5521 5541 5550 5548 5546 5543 5541 5539 5538 5537 5537 5538 5538 5539 5540 5540 5540 5541 5541 5540 5539 5539 5539 5539 5539 5540 5539 5539 5539 5540 5541
5522 5528 5538 5537 5537 5533 5525 5520 5523 5511 5505 5505 5514 5521 5534 5544 5542 5539 5536 5533 5532 5531 5531 5530 5530 5531 5532 5533 5533 5534 5534 5535 5534 5533 5533 5533 5532 5532 5533 5532 5533 5533 5533 5533
5516 5515 5524 5525 5527 5526 5523 5514 5502 5506 5509 5508 5516 5518 5528 5538 5536 5533 5529 5526 5525 5524 5523 5523 5522 5523 5524 5525 5526 5527 5528 5528 5528 5527 5526 5527 5526 5526 5525 5525 5525 5525 5525 5526
5503 5499 5506 5510 5512 5514 5508 5507 5504 5497 5497 5499 5502 5523 5534 5532 5530 5526 5523 5520 5518 5516 5516 5516 5515 5515 5516 5516 5517 5519 5520 5520 5520 5520 5519 5519 5519 5518 5518 5517 5517 5517 5517 5518
5488 5481 5483 5495 5505 5506 5505 5503 5496 5496 5493 5484 5488 5513 5531 5524 5521 5518 5515 5513 5511 5510 5508 5508 5507 5507 5508 5508 5509 5511 5511 5512 5512 5512 5512 5511 5511 5511 5510 5510 5510 5510 5510 5510
5479 5473 5474 5484 5491 5490 5491 5491 5489 5486 5481 5473 5477 5508 5519 5513 5511 5509 5507 5505 5502 5501 5500 5499 5498 5498 5499 5500 5501 5503 5503 5504 5504 5504 5503 5502 5502 5502 5503 5503 5503 5502 5502 5501
5471 5464 5468 5476 5485 5480 5477 5480 5477 5475 5470 5472 5484 5502 5509 5504 5502 5500 5497 5495 5493 5492 5492 5490 5489 5488 5490 5491 5493 5494 5495 5495 5495 5495 5494 5494 5494 5494 5494 5494 5494 5494 5493 5493
5455 5454 5458 5464 5469 5468 5471 5474 5472 5471 5472 5474 5486 5488 5499 5496 5494 5491 5489 5486 5485 5484 5483 5482 5480 5480 5481 5482 5484 5485 5486 5487 5487 5486 5486 5486 5486 5486 5485 5485 5485 5485 5485 5485
5439 5441 5444 5449 5458 5459 5463 5468 5469 5472 5473 5473 5478 5483 5487 5484 5482 5480 5479 5478 5476 5475 5474 5472 5472 5472 5472 5473 5475 5476 5477 5477 5477 5478 5477 5477 5477 5477 5477 5476 5476 5476 5476 5475
5425 5428 5431 5436 5444 5448 5452 5461 5463 5464 5464 5466 5467 5473 5472 5471 5471 5470 5469 5467 5466 5466 5465 5463 5462 5462 5463 5463 5465 5467 5468 5468 5468 5468 5468 5468 5467 5467 5467 5467 5466 5466 5466 5466
5415 5415 5415 5418 5426 5428 5455 5456 5457 5456 5457 5455 5457 5459 5459 5460 5460 5458 5457 5456 5456 5456 5456 5455 5454 5454 5454 5454 5455 5457 5458 5458 5458 5458 5458 5458 5458 5458 5457 5457 5456 5456 5456 5456
5412 5410 5406 5409 5414 5428 5440 5443 5441 5442 5447 5446 5447 5448 5446 5444 5446 5447 5448 5446 5446 5446 5445 5445 5444 5444 5444 5445 5446 5447 5447 5447 5448 5448 5448 5448 5448 5448 5447 5447 5447 5446 5446 5446
5403 5403 5403 5403 5409 5419 5431 5432 5433 5436 5435 5437 5435 5434 5432 5433 5434 5439 5438 5436 5436 5436 5434 5434 5434 5434 5434 5435 5436 5437 5436 5436 5437 5438 5438 5438 5438 5438 5438 5437 5437 5436 5436 5435
5390 5390 5393 5396 5399 5409 5414 5417 5425 5422 5424 5423 5422 5422 5420 5420 5422 5423 5423 5423 5423 5423 5423 5423 5422 5422 5422 5423 5424 5425 5425 5425 5426 5427 5428 5428 5428 5428 5427 5427 5426 5426 5425 5425
5385 5383 5384 5386 5388 5398 5401 5403 5403 5403 5405 5406 5408 5409 5407 5406 5407 5408 5409 5409 5409 5409 5410 5410 5410 5409 5409 5410 5412 5412 5412 5414 5415 5416 5417 5417 5417 5417 5417 5416 5415 5415 5414 5413
5371 5377 5379 5381 5387 5387 5386 5388 5388 5388 5390 5392 5393 5394 5394 5393 5394 5395 5395 5395 5395 5395 5395 5396 5396 5397 5397 5397 5398 5400 5400 5402 5404 5404 5405 5406 5406 5406 5406 5405 5404 5402 5402 5400
5360 5364 5366 5368 5373 5373 5373 5373 5374 5375 5376 5377 5378 5379 5380 5380 5380 5380 5380 5381 5381 5381 5381 5382 5382 5383 5383 5384 5385 5386 5388 5390 5391 5392 5393 5394 5394 5394 5394 5393 5392 5390 5389 5387
5351 5351 5352 5355 5359 5360 5362 5360 5360 5362 5363 5364 5365 5365 5366 5366 5366 5366 5367 5367 5367 5368 5368 5368 5369 5370 5370 5371 5373 5374 5376 5378 5379 5380 5381 5381 5381 5381 5381 5380 5378 5377 5376 5375
5339 5339 5341 5346 5349 5347 5349 5348 5348 5349 5350 5351 5351 5352 5352 5352 5352 5353 5353 5353 5354 5354 5355 5355 5356 5357 5358 5359 5360 5362 5363 5365 5366 5367 5367 5367 5368 5368 5367 5366 5365 5364 5363 5363